Balikesir, Turkey

7:02 PM +03 on April 24, 2017 (GMT +0300)
Balikesir Air Base

Weather History for LTBF - September, 2013

Change the Weather History Date:

Tuesday, September 3, 2013

  Actual Average Record
Temperature  
Mean Temperature 71 °F -  
Max Temperature 88 °F 80 °F 95 °F (2000)
Min Temperature 54 °F 56 °F 50 °F (2006)
Cooling Degree Days 6    
Growing Degree Days 21 (Base 50)    
Moisture  
Dew Point 49 °F    
Average Humidity 49    
Maximum Humidity 82    
Minimum Humidity 12    
Precipitation  
Precipitation 0.00 in 0.03 in - ()
Sea Level Pressure  
Sea Level Pressure 30.02 in    
Wind  
Wind Speed 2 mph ()    
Max Wind Speed 12 mph    
Max Gust Speed -    
Visibility 6.1 miles    
Events      
Averages and records for this station are not official NWS values.
T = Trace of Precipitation, MM = Missing Value Source: Averaged Metar Reports

Daily Weather History Graph

Daily Weather History Graph

Search for Another Location

Airport or City:

Trip Planner

Search our weather history database for the weather conditions in past years. The results will help you decide how hot, cold, wet, or windy it might be!

Date:

Astronomy

Sep. 03, 2013 Rise Set
Actual Time 6:38 AM EEST 7:36 PM EEST
Civil Twilight 6:10 AM EEST 8:03 PM EEST
Nautical Twilight 5:38 AM EEST 8:36 PM EEST
Astronomical Twilight 5:04 AM EEST 9:10 PM EEST
Moon 4:33 AM EEST (9/3) 6:12 PM EEST (9/3)
Length of Visible Light 13h 53m
Length of Day
12h 58m
Waning Crescent, 4% of the Moon is Illuminated
Sep 3
Waning Crescent
Sep 5
New
Sep 12
First Quarter
Sep 19
Full
Sep 27
Last Quarter

Hourly Weather History & Observations

Time (EEST) Temp. Dew Point Humidity Pressure Visibility Wind Dir Wind Speed Gust Speed Precip Events Conditions
12:50 AM 62.6 °F 53.6 °F 72% 30.06 in - Calm Calm - N/A   Clear
1:50 AM 60.8 °F 53.6 °F 77% 30.06 in - Calm Calm - N/A   Clear
2:50 AM 59.0 °F 51.8 °F 77% 30.06 in - Calm Calm - N/A   Clear
3:00 AM 60 °F 52 °F 66% 30.06 in 6 mi Calm Calm - -  
3:50 AM 59.0 °F 51.8 °F 77% 30.06 in - Calm Calm - N/A   Clear
4:50 AM 57.2 °F 50.0 °F 77% 30.06 in - Calm Calm - N/A   Clear
5:50 AM 57.2 °F 51.8 °F 82% 30.06 in - Calm Calm - N/A   Clear
6:50 AM 57.2 °F 51.8 °F 82% 30.06 in - SW 2.3 mph - N/A   Clear
7:50 AM 59.0 °F 53.6 °F 82% 30.06 in - Calm Calm - N/A   Clear
8:50 AM 64.4 °F 55.4 °F 73% 30.06 in - Calm Calm - N/A   Clear
9:00 AM 65 °F 54 °F 60% 30.07 in 6 mi Calm Calm - -  
9:50 AM 69.8 °F 57.2 °F 64% 30.09 in - Variable 1.2 mph - N/A   Clear
10:50 AM 75.2 °F 55.4 °F 50% 30.06 in - Calm Calm - N/A   Clear
11:50 AM 80.6 °F 46.4 °F 30% 30.06 in - Variable 3.5 mph - N/A   Clear
12:50 PM 84.2 °F 41.0 °F 22% 30.04 in - NE 6.9 mph - N/A   Clear
1:50 PM 86.0 °F 42.8 °F 22% 30.01 in - NE 8.1 mph - N/A   Clear
2:50 PM 87.8 °F 42.8 °F 21% 29.98 in 6.2 mi NNE 10.4 mph - N/A   Partly Cloudy
3:00 PM 87 °F 42 °F 12% 29.99 in 6 mi NNE 10.4 mph - -   Scattered Clouds
3:50 PM 87.8 °F 42.8 °F 21% 29.98 in 6.2 mi NNE 9.2 mph - N/A   Partly Cloudy
4:50 PM 87.8 °F 44.6 °F 22% 29.95 in 6.2 mi North 11.5 mph - N/A   Partly Cloudy
5:50 PM 86.0 °F 46.4 °F 25% 29.95 in - North 9.2 mph - N/A   Clear
6:50 PM 84.2 °F 46.4 °F 27% 29.95 in - NNE 8.1 mph - N/A   Clear
7:50 PM 77.0 °F 46.4 °F 34% 29.95 in - East 5.8 mph - N/A   Clear
8:50 PM 75.2 °F 46.4 °F 36% 29.98 in - Variable 1.2 mph - N/A   Clear
9:00 PM 75 °F 46 °F 25% 29.97 in 6 mi NNW 1.2 mph - -  
9:50 PM 75.2 °F 46.4 °F 36% 29.98 in - Calm Calm - N/A   Clear
10:50 PM 71.6 °F 51.8 °F 50% 29.98 in - Calm Calm - N/A   Clear
11:50 PM 69.8 °F 48.2 °F 46% 29.98 in - SW 2.3 mph - N/A   Clear